GFSSE_250_spd_159.txt.gz
Wind_Speed
10 5 18 18 19 18 24 22 22 26 28 31 34 38 42 42 45 43 45 43 40 36 36 32 27 20 17 15 17 13 9 7 9 8 10 8 7 7 6 6 6 7 6
21 28 26 22 22 28 29 29 33 32 37 37 40 45 49 47 47 42 43 40 38 35 35 30 27 18 17 14 18 13 8 6 8 7 11 12 10 10 6 4 5 8 9
22 21 23 27 29 31 32 36 37 38 42 43 46 49 52 52 49 47 43 41 41 37 31 28 26 20 17 14 18 13 8 7 8 9 11 11 9 9 7 6 6 6 9
24 27 29 31 33 35 36 38 38 40 43 47 49 50 52 53 51 49 43 45 42 36 26 31 29 21 18 18 16 14 11 9 9 9 12 11 8 10 8 7 7 6 7
24 22 24 27 30 35 37 38 42 45 48 49 52 52 49 48 47 44 40 41 37 34 30 27 28 20 19 20 16 15 11 11 12 12 9 10 9 9 9 8 7 9 10
29 33 36 37 39 38 41 44 45 46 48 50 49 47 43 37 35 33 35 33 32 30 29 26 26 19 18 18 15 17 13 11 10 11 11 14 8 11 11 7 8 8 10
29 31 35 37 40 40 40 42 43 42 42 43 43 34 30 26 25 24 24 26 27 27 24 23 21 22 19 17 15 17 13 11 11 11 14 17 14 10 14 10 6 7 9
33 34 35 37 38 40 41 40 39 39 37 35 28 21 19 18 20 21 24 24 22 22 21 21 21 18 18 18 16 18 13 12 12 15 15 15 12 10 8 12 13 7 8
34 35 34 35 36 37 36 37 36 32 30 27 23 19 18 19 20 20 21 21 22 21 19 17 17 18 18 17 19 18 13 14 13 14 15 15 11 12 9 7 15 10 10
31 32 32 33 34 34 34 34 33 28 26 24 21 18 17 18 19 20 23 23 24 22 18 12 11 15 18 17 17 13 12 14 13 16 17 14 15 13 10 7 7 12 12
31 31 31 29 31 30 29 29 26 25 25 22 20 19 19 18 20 21 23 23 24 21 17 12 9 11 14 14 13 12 13 14 14 15 15 14 13 14 13 11 10 9 13
30 28 26 24 23 23 24 25 25 24 24 20 20 18 17 18 22 22 23 22 21 19 14 7 7 8 10 13 11 10 11 13 13 12 13 14 15 14 18 17 12 8 9
19 19 19 19 19 20 21 21 20 21 18 17 16 15 17 19 19 18 21 20 21 18 14 10 10 9 6 8 9 10 12 14 15 14 14 13 15 14 15 22 12 8 8
13 14 14 16 16 14 14 11 9 10 9 9 11 13 14 14 12 16 21 22 22 20 18 15 8 8 6 8 10 10 10 15 14 16 18 18 17 15 14 22 19 15 12
7 8 9 8 6 6 8 8 9 9 10 10 11 11 11 12 12 15 19 22 22 23 22 17 5 6 8 11 12 13 12 13 14 16 20 23 22 20 19 18 26 23 18
2 2 3 6 9 10 11 11 11 11 12 13 12 12 11 9 11 15 18 19 19 19 17 17 11 8 13 15 15 17 21 16 18 19 16 19 22 24 22 24 24 28 24
9 10 12 14 14 14 14 13 13 12 12 12 13 15 14 12 12 14 17 19 20 17 14 12 14 14 12 16 19 24 23 21 20 20 19 17 17 18 16 22 23 29 26
14 15 15 14 13 12 12 13 13 13 14 14 15 14 14 15 16 16 15 14 13 14 17 17 19 19 18 17 16 19 21 23 23 24 23 22 22 18 18 18 19 27 29
16 15 15 14 14 15 15 16 17 17 17 17 17 18 18 18 18 21 23 25 27 26 26 26 28 26 28 26 24 26 29 30 32 32 29 28 25 25 24 23 24 24 31
20 19 19 19 19 19 18 19 18 18 18 19 18 17 17 18 20 22 21 17 15 16 18 23 28 27 24 24 23 25 31 35 37 40 39 36 34 33 31 31 31 30 30
18 18 16 16 18 19 20 21 20 20 21 19 18 19 18 19 20 21 17 18 17 18 21 25 31 37 40 36 35 31 38 39 39 43 45 47 46 43 39 34 33 34 32
18 17 19 21 22 23 24 23 25 22 19 19 19 21 23 24 25 21 15 15 17 26 32 30 37 43 45 45 47 50 48 48 48 45 47 50 49 50 47 43 38 37 35
19 17 13 11 13 17 22 24 26 25 26 23 20 22 24 24 25 27 25 25 27 33 40 44 51 47 50 48 47 51 56 56 62 56 45 44 51 53 52 51 46 44 42
17 17 17 21 16 12 21 26 28 28 27 31 27 23 22 27 34 34 27 25 33 36 40 50 53 57 55 55 49 51 53 52 59 63 56 50 41 47 58 57 56 52 49
14 14 16 19 21 18 22 25 26 28 29 34 34 29 25 29 34 32 28 29 32 38 46 54 61 62 61 58 55 57 64 57 62 56 63 55 55 48 50 63 62 61 57
14 16 18 20 21 22 24 27 28 30 33 35 33 33 28 27 36 30 32 32 37 43 53 60 64 67 67 60 58 62 63 63 67 65 60 62 67 68 51 51 67 66 64

GFSSE_250_spd_162.txt.gz
Wind_Speed
10 19 20 20 20 21 21 23 30 35 35 37 41 45 45 46 50 52 51 47 37 34 32 27 30 27 19 14 13 16 10 4 8 5 7 3 3 5 6 4 5 6 8
7 10 14 21 21 22 29 32 35 37 38 40 41 44 47 51 52 51 49 41 35 23 32 29 25 24 18 15 13 15 9 5 5 7 8 8 5 6 8 7 6 5 6
29 33 35 35 30 29 33 35 38 40 41 43 47 49 52 53 51 48 43 33 35 33 28 18 17 23 24 15 16 14 11 8 7 6 9 14 7 6 6 7 8 6 5
30 34 36 35 35 36 38 40 40 41 42 47 50 49 50 47 44 40 39 35 33 33 30 25 28 30 21 15 17 14 15 8 8 7 7 11 14 8 8 7 7 6 7
30 33 33 34 34 32 35 39 43 43 43 43 46 44 43 40 32 32 28 28 25 25 26 25 25 24 23 17 16 13 16 10 9 9 8 8 12 13 9 7 5 4 5
29 30 33 34 36 38 40 43 42 42 42 40 40 40 35 27 23 21 19 17 19 20 20 20 21 21 20 16 16 13 13 13 10 8 8 10 10 13 12 13 7 5 6
30 28 30 32 35 35 38 38 36 36 35 35 34 32 25 21 21 23 22 22 20 20 20 18 18 16 19 20 18 15 12 12 10 9 10 12 15 10 10 14 10 8 8
32 31 32 32 33 33 32 32 32 33 33 33 29 25 24 24 24 23 22 21 21 20 19 15 16 19 15 18 14 14 14 12 12 12 12 11 14 10 8 9 10 11 7
33 33 32 33 32 31 31 32 33 32 30 27 25 23 23 22 20 21 21 23 22 20 16 14 14 14 20 15 12 13 17 11 11 12 13 13 14 12 11 10 7 12 10
30 31 31 31 31 32 31 30 30 27 25 24 23 21 21 20 18 21 22 20 19 16 11 10 8 6 9 12 14 16 9 9 10 11 14 13 12 12 13 9 7 8 13
29 31 30 29 29 27 24 23 22 21 23 21 23 20 17 17 19 19 19 18 20 17 11 8 4 2 5 8 10 9 9 10 10 11 11 11 12 12 14 14 12 12 7
26 27 26 22 20 18 18 18 19 19 19 19 18 16 13 13 14 14 17 17 21 20 13 8 2 3 4 4 4 6 7 10 11 12 12 12 12 11 13 18 17 11 8
20 17 15 13 13 14 16 16 15 13 11 10 9 7 8 9 9 12 17 21 22 23 18 12 0 2 4 4 3 5 7 9 12 14 14 14 14 15 13 15 21 19 11
12 10 9 10 10 9 6 4 3 3 4 6 7 7 7 7 8 13 15 17 19 22 19 17 8 5 4 4 7 6 7 10 14 13 14 15 16 19 20 17 16 23 18
5 4 4 3 1 3 6 6 7 8 9 10 12 11 8 8 9 12 14 17 19 20 19 21 15 10 7 10 10 11 11 15 16 16 17 18 18 19 21 21 22 22 24
6 5 6 7 10 12 12 13 14 13 13 13 13 15 14 13 11 15 16 18 19 19 18 18 18 16 14 12 13 15 16 20 19 18 20 19 19 16 15 17 21 23 25
16 16 16 15 15 14 14 13 12 12 12 12 13 13 12 14 14 15 14 14 14 16 18 18 18 18 19 17 18 17 18 20 18 20 21 22 23 24 21 17 16 18 22
18 19 18 17 17 17 17 16 16 16 15 15 16 16 15 14 16 17 12 14 17 20 21 23 26 26 26 26 23 24 22 25 27 29 29 29 29 29 26 22 20 19 17
23 23 23 21 21 20 19 19 19 18 17 17 15 15 15 17 19 17 17 18 18 15 13 24 33 34 32 30 27 28 29 29 27 26 27 32 35 36 34 31 29 27 25
21 23 23 22 22 23 23 21 20 19 18 16 16 17 17 18 18 15 12 12 11 11 14 20 32 36 38 45 46 42 39 39 37 37 38 35 32 39 42 41 38 35 35
22 24 24 24 24 23 22 23 25 25 22 17 17 17 15 16 21 24 16 11 13 17 20 25 36 42 48 49 52 55 53 46 43 47 46 44 42 38 36 47 48 43 40
18 17 17 17 18 20 22 24 23 21 24 22 20 18 15 14 21 25 24 16 17 23 28 30 41 46 47 51 56 60 63 62 56 55 53 51 49 47 46 38 48 50 49
15 15 18 16 10 16 19 22 23 22 23 25 25 22 20 25 29 26 29 22 25 27 29 31 41 47 50 52 57 61 64 66 64 63 63 59 55 54 53 45 37 48 52
15 16 17 17 16 16 18 19 22 24 25 26 27 23 24 26 26 29 30 24 26 39 45 42 43 46 51 57 63 65 68 69 70 68 65 65 63 62 56 50 41 41 52
11 12 13 15 16 18 19 20 22 23 26 28 28 27 28 32 34 30 31 29 31 41 46 48 51 55 57 64 67 69 71 70 65 66 68 71 71 64 65 59 50 45 45
10 11 12 14 16 17 19 21 23 25 27 30 32 33 30 35 32 26 33 35 43 42 49 46 54 59 63 66 68 76 74 73 68 70 67 70 68 72 70 65 54 51 42

GFSSE_250_spd_165.txt.gz
Wind_Speed
18 21 24 18 22 23 22 26 31 31 35 40 44 49 47 50 52 49 44 33 30 13 17 13 27 21 20 15 15 15 19 6 5 10 10 8 5 3 3 7 7 7 7
14 11 17 27 25 30 29 30 35 41 42 44 45 44 49 46 49 43 25 27 20 18 20 23 24 14 13 16 18 19 17 12 6 7 10 8 7 6 6 4 8 9 10
13 17 16 25 38 44 43 42 41 42 43 44 48 47 45 42 43 39 30 28 25 26 25 24 9 24 23 28 16 18 15 15 8 6 9 13 12 9 7 8 8 8 9
31 35 37 40 43 45 46 45 43 42 44 48 46 42 41 41 37 30 26 22 21 20 19 22 11 26 25 22 14 10 15 15 9 8 7 7 13 17 16 8 9 6 6
30 34 36 38 41 43 44 42 42 45 45 43 40 36 36 36 30 25 26 23 21 19 19 19 23 21 17 18 18 10 13 13 14 10 10 8 9 12 16 12 9 6 7
28 29 32 36 37 38 41 41 41 40 40 38 35 34 32 30 25 24 21 20 20 18 18 17 16 13 11 17 12 14 14 10 12 10 8 9 10 15 14 12 14 7 6
31 34 36 37 37 39 39 37 38 37 34 34 32 32 29 26 22 21 21 20 22 21 19 16 12 10 14 21 21 15 12 11 12 9 9 10 12 13 12 11 12 12 7
36 37 38 38 38 37 35 35 34 33 31 31 31 28 26 23 23 22 22 23 22 21 18 12 10 10 19 11 16 8 9 14 12 7 9 12 13 14 11 8 9 13 12
36 35 35 35 36 33 33 32 32 32 30 29 26 22 23 21 21 21 20 20 20 19 12 6 6 7 20 14 10 7 11 15 5 8 9 12 13 14 11 12 9 8 11
36 34 32 30 30 29 30 30 28 26 24 23 21 20 21 20 19 17 17 18 19 15 10 5 7 8 6 3 6 11 11 3 6 8 11 13 13 14 12 13 10 9 9
32 29 27 25 25 26 25 22 21 21 21 20 19 19 19 14 13 13 15 18 20 15 11 8 7 5 4 2 5 4 5 4 6 8 10 10 11 12 12 13 14 12 11
23 21 20 20 18 17 16 16 16 18 18 17 16 13 10 11 12 13 14 21 22 23 14 8 9 8 7 4 5 4 6 7 8 9 11 12 12 11 11 14 15 19 12
16 15 14 13 12 12 12 12 13 12 11 9 9 9 10 11 11 14 16 17 20 25 25 16 10 8 10 9 8 8 8 9 11 14 14 13 15 16 17 16 15 18 21
9 9 8 8 8 8 8 7 7 8 9 11 12 12 11 12 13 13 15 17 19 22 26 23 17 13 9 10 11 12 10 12 15 17 17 16 18 18 19 20 20 17 19
3 3 4 5 6 7 9 10 12 12 13 13 14 14 13 11 10 11 12 15 17 19 22 22 21 20 17 16 14 14 15 17 20 22 23 22 23 21 20 21 20 21 20
10 10 9 10 12 13 12 12 13 12 13 13 13 13 13 12 14 16 16 15 18 25 28 29 27 29 31 26 24 22 20 18 21 22 23 24 26 26 24 23 22 22 24
17 16 14 12 12 14 16 17 16 15 15 16 16 16 16 17 18 18 18 19 23 26 30 29 27 31 31 32 32 28 28 31 25 23 24 26 30 31 32 31 28 25 24
17 18 19 20 20 19 19 18 18 17 17 16 16 15 16 16 15 17 16 13 14 12 15 21 25 30 32 32 32 33 36 37 39 32 30 34 34 32 31 35 36 32 28
20 21 22 22 23 23 23 22 21 19 17 17 17 16 18 22 22 16 12 9 8 9 12 21 25 32 31 35 37 40 41 43 45 44 43 43 39 38 36 32 30 40 37
20 22 24 24 24 24 23 23 23 21 18 16 14 14 12 15 20 21 20 17 13 17 20 20 22 32 35 36 39 43 46 50 51 52 52 56 50 45 42 40 35 32 43
20 21 20 21 21 21 22 20 20 22 22 22 20 17 10 16 22 21 19 16 10 19 26 27 30 33 37 41 44 47 51 53 54 59 59 59 57 53 51 47 43 36 31
15 11 8 9 13 16 17 20 20 20 21 23 22 19 20 21 22 23 23 23 17 23 35 32 39 39 40 45 46 50 54 57 60 61 63 62 60 58 55 55 51 45 41
14 15 16 14 13 14 15 17 18 18 20 22 24 22 19 24 26 22 23 29 32 28 35 35 44 49 48 47 50 53 55 59 64 65 69 69 65 59 56 54 51 46 46
10 10 11 12 12 12 13 14 16 17 18 20 22 24 26 26 29 27 28 33 35 32 38 44 51 51 53 54 53 56 64 67 72 76 81 73 71 67 60 55 51 47 48
9 10 11 11 12 13 14 16 17 18 20 21 22 23 23 29 30 32 31 34 37 43 41 46 52 49 52 56 59 62 71 72 74 78 79 87 81 71 60 56 52 52 50
8 10 11 12 12 13 15 16 17 19 21 24 26 28 30 33 35 35 34 34 37 38 41 46 46 53 57 57 69 71 68 71 82 80 79 80 76 77 68 62 60 58 57

GFSSE_250_spd_168.txt.gz
Wind_Speed
18 23 17 23 25 31 28 28 32 40 45 47 47 48 49 50 48 45 38 27 20 22 10 9 17 22 16 11 14 24 25 19 11 6 9 12 10 5 7 6 7 9 10
18 15 13 21 27 32 31 39 48 51 50 50 47 47 49 46 41 40 33 27 24 18 20 21 18 17 19 26 18 15 14 15 13 6 10 11 16 12 5 8 9 8 10
10 12 21 23 23 32 37 42 51 51 49 47 45 47 46 45 38 35 33 25 23 19 17 21 16 3 19 23 14 15 10 11 13 8 7 10 10 11 14 10 8 8 9
26 28 29 35 40 41 42 43 46 46 45 44 44 44 43 37 34 31 27 25 23 20 18 17 14 15 20 15 14 15 3 9 11 11 10 10 10 11 14 15 10 7 7
22 28 33 37 39 38 39 43 45 44 44 42 43 40 36 34 29 29 26 23 20 21 19 17 18 17 21 15 11 11 9 8 9 13 8 9 9 12 15 13 15 9 6
32 33 33 35 35 38 42 44 45 44 45 42 38 35 34 29 29 26 26 26 22 25 21 18 16 11 15 14 14 9 11 14 8 14 8 6 10 12 13 11 12 14 5
33 35 35 38 40 42 43 44 43 41 40 37 36 33 30 28 25 26 27 26 23 22 21 17 10 7 1 5 13 16 19 9 10 14 6 8 11 11 12 9 8 13 10
37 40 40 40 39 38 39 39 37 36 35 35 31 27 25 23 24 25 23 22 24 21 17 13 8 6 1 12 7 7 3 7 10 9 7 5 14 14 15 10 8 8 10
40 40 40 37 37 38 36 34 33 32 31 27 25 24 23 22 21 15 20 21 22 16 15 10 10 11 8 12 9 4 7 11 6 7 7 10 13 13 15 13 12 7 7
38 38 38 39 36 35 33 30 29 25 23 22 22 20 20 16 11 14 19 23 22 18 16 13 16 17 14 10 5 9 12 9 8 8 11 13 14 13 13 11 12 10 10
37 34 30 29 28 24 22 21 19 18 19 18 17 16 13 10 13 12 17 21 22 19 18 19 23 16 18 12 9 8 10 10 10 13 13 15 15 15 15 13 13 13 14
22 20 18 17 16 16 15 14 14 14 12 12 12 11 10 11 13 15 14 20 26 26 20 17 12 11 8 10 13 12 11 10 10 14 10 18 17 17 18 18 18 16 16
10 9 8 10 10 9 8 8 10 12 12 12 12 13 12 14 13 15 10 18 22 29 27 23 21 19 14 13 13 14 13 13 13 18 18 21 19 18 21 21 21 21 20
3 3 3 5 7 11 12 13 11 11 12 14 16 16 14 13 13 11 15 21 27 31 30 30 28 24 23 22 23 22 21 19 19 19 19 22 24 26 27 25 22 22 21
4 6 10 12 12 13 12 12 12 15 16 17 16 17 18 17 17 18 19 26 27 32 33 33 32 32 31 27 26 26 30 30 27 25 23 24 25 27 26 29 28 27 26
14 16 15 14 13 14 17 18 18 19 20 20 21 21 20 17 19 21 24 25 25 26 26 26 25 25 27 24 25 26 28 29 30 31 29 29 33 39 30 26 26 30 31
17 16 15 16 18 18 19 20 20 20 19 20 20 21 20 21 21 18 16 16 17 21 19 20 21 25 24 27 24 26 28 29 29 29 29 31 36 40 31 30 27 25 26
17 20 20 21 22 22 22 23 22 22 21 20 20 21 21 22 21 16 11 8 10 11 18 22 17 25 24 26 30 31 33 34 35 37 38 42 44 46 46 38 32 28 25
21 23 25 24 23 24 24 23 22 21 18 17 15 13 15 18 22 16 15 12 11 11 21 19 18 27 31 33 34 35 34 35 37 40 44 48 51 52 54 47 45 37 31
23 23 23 22 21 21 21 21 21 21 21 20 18 14 14 18 18 17 16 17 13 14 21 28 26 38 36 36 38 38 37 38 41 45 48 52 57 59 59 59 53 49 43
19 17 17 17 16 18 18 18 17 17 18 16 14 14 13 13 15 14 16 19 25 22 23 27 29 34 40 42 40 44 43 38 48 53 58 57 56 63 66 60 59 54 50
12 11 11 12 13 14 15 14 13 14 14 14 14 11 12 14 20 23 20 21 26 27 24 30 30 33 39 46 35 46 51 52 50 56 62 59 63 70 69 60 61 58 51
14 12 10 9 10 12 12 12 12 14 14 15 15 16 19 21 23 23 24 23 22 27 30 33 32 36 38 34 42 51 58 58 64 69 63 69 76 72 67 63 56 50 46
9 9 10 10 10 11 12 13 14 14 14 15 17 19 21 24 23 22 27 23 29 36 34 38 37 41 44 44 50 54 57 61 62 64 79 81 79 71 65 60 57 54 49
8 9 9 11 11 13 14 15 16 17 19 21 21 23 25 26 30 33 33 29 32 37 35 35 39 45 45 48 55 59 57 62 68 75 79 78 72 73 67 65 59 51 49
6 7 8 9 12 15 17 19 21 22 23 25 27 26 28 30 33 34 35 34 36 38 40 42 46 48 39 53 65 63 64 68 76 78 75 71 65 70 79 71 57 49 52

GFSSE_250_spd_171.txt.gz
Wind_Speed
18 18 20 22 27 26 30 33 36 42 48 48 51 50 49 45 46 47 38 34 27 24 14 9 11 19 16 18 18 12 9 12 15 5 5 8 12 11 7 9 10 10 11
14 13 21 26 27 27 29 34 39 44 44 47 49 49 47 46 45 41 32 27 22 19 14 13 17 13 3 5 14 10 9 7 12 7 6 3 10 11 10 14 8 7 8
19 17 21 24 27 30 35 39 46 46 45 49 50 47 46 45 39 34 32 24 20 17 15 11 13 15 16 19 15 6 6 8 7 6 11 8 7 9 11 15 10 9 8
25 27 33 35 35 38 42 42 41 43 46 48 49 46 42 40 37 32 29 26 24 21 19 16 15 11 23 15 16 6 5 3 6 9 10 10 11 10 13 12 11 13 7
27 32 33 34 38 41 42 40 43 46 46 47 45 41 38 37 35 30 25 26 25 22 20 18 14 13 14 22 15 7 4 6 6 10 12 8 8 10 13 15 12 12 7
37 36 37 37 38 39 43 44 44 44 43 41 38 37 36 33 27 25 25 23 23 20 18 17 14 10 9 8 14 11 8 13 10 8 12 7 6 10 12 15 11 11 7
36 38 39 40 42 43 45 46 42 41 39 35 35 31 28 24 22 20 18 22 24 19 15 12 9 4 7 10 2 4 11 3 4 10 6 7 6 11 14 15 11 9 9
40 40 42 43 44 44 44 41 41 40 36 32 27 25 22 18 16 15 19 22 18 15 14 13 14 12 5 8 5 6 4 5 7 5 6 9 13 16 16 17 12 13 8
43 43 43 42 41 40 40 40 37 33 28 23 22 19 16 12 11 15 20 21 17 20 23 23 23 24 21 13 10 9 9 11 10 7 7 11 16 18 16 17 14 14 11
45 43 41 39 37 35 33 28 24 19 17 16 12 13 13 10 12 19 23 19 20 24 21 24 22 21 19 15 12 13 13 11 12 17 26 25 23 17 17 16 15 17 14
39 36 31 27 24 21 16 14 14 12 9 6 12 12 10 9 13 15 24 25 23 23 22 23 18 20 21 20 18 15 13 10 12 17 12 4 19 19 18 20 19 19 18
24 21 16 11 7 7 8 6 3 6 11 9 8 4 9 13 16 19 19 24 29 27 24 21 18 20 19 21 16 17 14 13 10 13 13 15 19 20 21 22 21 21 19
8 5 1 2 3 2 5 9 11 14 12 10 11 11 12 12 16 18 19 22 32 31 31 30 28 26 28 29 27 25 22 21 19 16 17 17 21 26 28 25 24 23 22
3 6 6 9 12 12 14 15 13 12 13 13 14 12 11 14 18 20 26 31 33 33 32 30 30 28 26 25 23 21 22 22 21 18 16 17 22 29 30 24 23 22 23
11 15 18 18 16 16 18 19 20 20 20 21 21 21 22 21 22 23 23 26 27 25 26 23 23 25 22 22 22 18 15 15 18 19 19 20 25 30 31 27 36 30 26
21 21 20 19 19 18 18 19 20 20 20 20 22 27 26 23 20 21 18 17 17 18 20 18 15 20 20 23 28 27 26 23 21 21 22 26 30 35 40 38 37 33 32
21 23 22 21 21 20 20 20 20 19 19 20 22 24 27 21 15 10 5 9 13 17 23 20 17 21 25 25 26 29 30 31 30 29 32 34 38 36 43 37 39 40 40
25 25 24 23 20 21 21 21 20 18 18 18 19 17 17 17 14 12 10 12 15 11 18 24 23 22 27 30 30 29 31 36 37 41 35 38 41 47 48 47 49 51 51
26 25 23 21 21 22 22 23 22 21 19 17 14 12 14 17 17 14 17 18 19 16 19 21 22 24 28 31 37 39 39 44 38 45 42 45 49 50 50 54 57 56 58
22 20 20 20 19 19 19 19 19 19 16 15 14 15 14 15 15 13 14 16 17 18 19 23 25 27 28 31 33 37 35 40 45 54 53 56 59 56 54 62 63 62 52
15 15 16 16 16 16 16 16 16 16 17 15 14 16 15 14 16 17 16 17 17 21 23 21 21 27 27 29 34 33 30 42 48 53 57 57 57 62 65 73 64 55 49
12 14 13 13 14 14 13 14 15 15 15 15 15 17 19 19 20 19 21 23 21 24 27 30 31 31 32 32 40 33 46 44 51 47 50 55 59 58 54 54 53 52 46
12 11 11 12 12 12 13 15 16 16 15 17 18 20 22 24 27 28 25 23 23 29 34 37 40 36 38 39 40 41 45 57 67 67 67 65 58 53 52 58 60 56 53
9 10 10 11 12 13 14 15 16 17 18 19 21 22 25 27 29 29 30 33 31 31 34 35 39 35 39 41 48 40 39 64 66 64 66 65 60 59 63 71 64 49 47
8 8 9 9 10 11 12 14 16 18 21 23 25 26 29 30 31 33 34 34 36 37 37 40 42 47 44 42 40 39 47 68 68 67 57 64 63 62 68 74 71 60 51
6 6 6 8 9 12 14 15 18 21 24 26 29 32 34 34 35 38 37 38 38 41 43 45 44 50 48 52 49 52 62 68 70 62 58 65 58 68 75 85 87 69 59